"Pseudo-MPEC" for P11OiVE

Created 2023 Dec 2 15:22:04 UT using Find_Orb

Click here for an explanation of pseudo-MPECs

 
 Astrometry: 
     P11OiVE* C2023 11 18e1Q3CefNI`\nVQpn^exKJ/7V-'+sNx^`)Astrometryr)o81e;L!F51
     P11OiVE  C2023 11 18c(redacted;RYv7DtclickI]SYj4ccG#s`o1q4C5j%BIU3HOOKf]F51
     P11OiVE  C2023 11 18^VKs4rukrnQAZIU:Fk*3.[F0eO[Qfsb8u[LG0t%I;9LKSs8S)4)0F51
     P11OiVE 7C2023 11 19yXEQE9]mNc:_[h+*W1/d^KV7.VL7fKI1VH)o_vxIk]^Y!C=2ULP9Z84
     P11OiVE 7C2023 11 19Q-+_cWPP\T;9Ebbu`efC#x!qdVD;IOHTi1e?;HsWaPVIlQ01r-4LZ84
     P11OiVE 7C2023 11 19,5CpEAhereeIq3W`yCYnkS%,][UOg?:9'(e3rb]=*I@U6R;iut^@Z84
     P11OiVE KC2023 11 21'cLy[G@Ua3\jRIb:`YxcTST,HC'C[!$y'CRjrqR+-B7V^Qq=*Zq]474
     P11OiVE KC2023 11 214W,2^)m_-l@PD]upTMUIlL-xC$(XP?F-%XFbL_prqcuAqwg%C:2A474
     P11OiVE KC2023 11 217k#ouC(N(eTh5MHfor5x1e?\ApJG:3[U$_%S\u\^II$,^+.N)?mV474
     P11OiVE KC2023 11 29.12935902 09 08.402-17 14 38.11   ~BT3b 21.95GVNEOCPI52
     P11OiVE KC2023 11 29.13218902 09 07.304-17 14 41.57   ~BT3b 20.33GVNEOCPI52
     P11OiVE KC2023 12 024sZ53xIn-'-2[iaqN1iQ5P6t^#X1Y4yRHie84-sAt.e[YmFID5y4858
     P11OiVE KC2023 12 02/]Rf;cF)=xQ,QxR9KMgZ8m+Ip*^oH-q444,+g77+Ci76;d#OW%BN858
     P11OiVE KC2023 12 029Fgbe5I6#LJlexplanation20Y#GkU6,s9[P?WmGJmhg2W6H[M'(858

Station data:
(474) Mount John Observatory, Lake Tekapo  (S43.987385 E170.464960)  New
   Zealand.  Observers A. C. Gilmore, P. M. Kilmartin. Measurer P. M.
   Kilmartin. 1.0-m f/7.7 reflector + CCD.
(858) Tebbutt Observatory, Edgewood  (N35.093869 W106.220000)  US/New Mexico.
    Observer F. B. Zoltowski. 0.16-m refractor + CCD0.51-m Schmidt-Cassegrain
   + CCD.
(F51) Pan-STARRS 1, Haleakala  (N20.707234 W156.255910)  US/Hawaii.
   Observers J. Bulger, T. Lowe, A. Schultz, M. Willman. Measurers K.
   Chambers, S. Chastel, T. de Boer, L. Denneau, J. Fairlamb, H. Flewelling,
   M. Huber, C.-C. Lin, E. Magnier, Y. Ramanjooloo, R. Wainscoat, R. Weryk.
   1.8-m Ritchey-Chrétien + CCD.
(I52) Steward Observatory, Mt. Lemmon Station  (N32.442544 W110.788920)
   US/Arizona.  Observers T. A. Pruyne, B. M. Africano, E. J. Christensen, G.
   A. Farneth, D. C. Fuls, A. R. Gibbs, A. D. Grauer, H. Gröller, J. A.
   Johnson, R. A. Kowalski, S. M. Larson, G. J. Leonard, D. Rankin, R. L.
   Seaman, F. C. Shelly, K. W. Wierzchoś. 1.0-m prime focus + CCD.
(Z84) Calar Alto-Schmidt  (N37.224046 W2.548210)  Spain.  Observer F. Ocana.
   Measurers E. Schwab, D. Koschny, M. Micheli. 0.8-m f/3 Schmidt + CCD.

Orbital elements:  P11OiVE
   Perihelion 2024 Jan 11.16148 +/- 0.0119 TT =  3:52:32 (JD 2460320.66148)
Epoch 2023 Dec  2.0 TT = JDT 2460280.5   Earth MOID: 0.0066      AutoNEOCP
M 341.08889298 +/- 0.055            (J2000 ecliptic)
n   0.47087669 +/- 0.00124          Peri.   39.58396 +/- 0.0047
a   1.63630623 +/- 0.00288          Node    78.16586 +/- 0.0023
e   0.4477884 +/- 0.00107           Incl.    7.82299 +/- 0.014
P   2.09/764.52d           H 24.80  G  0.15   U  8.2
q 0.90358721 +/- 0.000155    Q 2.36902525 +/- 0.00591
From 14 observations 2023 Nov. 18-Dec. 2; mean residual 0".11
Residuals in arcseconds: 
231118 F51  .01+  .03-    231119 Z84  .07+  .16+    231129 I52  .05-  .13-    
231118 F51  .06-  .09-    231121 474  .11+  .06+    231202 858  .24+  .18+    
231118 F51  .01+  .14+    231121 474  .04-  .06-    231202 858  .00   .08+    
231119 Z84  .04+  .15-    231121 474  .01-  .22-    231202 858  .24-  .14-    
231119 Z84  .08+  .08+    231129 I52  .05+  .00     

Ephemerides (geocentric):
Date (UTC) HH   RA             Dec           delta  r     elong  mag " sig PA
---- --------  ------------   ------------  ------ ------ -----  --- --------
2023 12 02 15  01 42 56.718   -18 21 38.43  .05673 1.0173 122.1 20.6 .409 160
2023 12 02 16  01 42 32.445   -18 22 31.45  .05653 1.0170 122.0 20.6 .415 159
2023 12 02 17  01 42 08.002   -18 23 24.57  .05633 1.0168 121.9 20.6 .421 159
2023 12 02 18  01 41 43.386   -18 24 17.77  .05613 1.0166 121.8 20.6 .427 158
2023 12 02 19  01 41 18.596   -18 25 11.06  .05593 1.0164 121.7 20.6 .434 157
2023 12 02 20  01 40 53.630   -18 26 04.44  .05573 1.0162 121.6 20.6 .440 157
2023 12 02 21  01 40 28.486   -18 26 57.90  .05553 1.0160 121.4 20.6 .447 156
2023 12 02 22  01 40 03.163   -18 27 51.45  .05533 1.0157 121.3 20.6 .453 156
2023 12 02 23  01 39 37.658   -18 28 45.07  .05513 1.0155 121.2 20.6 .460 155
2023 12 03 00  01 39 11.971   -18 29 38.78  .05493 1.0153 121.1 20.6 .467 155
2023 12 03 01  01 38 46.098   -18 30 32.57  .05473 1.0151 121.0 20.6 .474 154
2023 12 03 02  01 38 20.038   -18 31 26.44  .05453 1.0149 120.8 20.6 .482 153
2023 12 03 03  01 37 53.789   -18 32 20.39  .05433 1.0147 120.7 20.6 .489 153
2023 12 03 04  01 37 27.349   -18 33 14.41  .05413 1.0145 120.6 20.5 .497 152
2023 12 03 05  01 37 00.716   -18 34 08.50  .05393 1.0142 120.5 20.5 .504 152
2023 12 03 06  01 36 33.888   -18 35 02.67  .05373 1.0140 120.3 20.5 .512 151
2023 12 03 07  01 36 06.863   -18 35 56.91  .05353 1.0138 120.2 20.5 .520 151
2023 12 03 08  01 35 39.639   -18 36 51.22  .05333 1.0136 120.1 20.5 .529 150
2023 12 03 09  01 35 12.213   -18 37 45.59  .05314 1.0134 119.9 20.5 .537 149
2023 12 03 10  01 34 44.585   -18 38 40.03  .05294 1.0132 119.8 20.5 .546 149
2023 12 03 11  01 34 16.751   -18 39 34.54  .05274 1.0130 119.7 20.5 .555 148
2023 12 03 12  01 33 48.709   -18 40 29.10  .05254 1.0128 119.6 20.5 .564 148
2023 12 03 13  01 33 20.457   -18 41 23.73  .05235 1.0125 119.4 20.5 .573 147
2023 12 03 14  01 32 51.993   -18 42 18.41  .05215 1.0123 119.3 20.5 .582 147
2023 12 03 15  01 32 23.315   -18 43 13.14  .05195 1.0121 119.2 20.5 .592 146
2023 12 03 16  01 31 54.421   -18 44 07.93  .05175 1.0119 119.0 20.5 .602 145
2023 12 03 17  01 31 25.307   -18 45 02.77  .05156 1.0117 118.9 20.5 .612 145
2023 12 03 18  01 30 55.972   -18 45 57.66  .05136 1.0115 118.8 20.5 .622 144
2023 12 03 19  01 30 26.413   -18 46 52.59  .05116 1.0113 118.6 20.5 .632 144
2023 12 03 20  01 29 56.629   -18 47 47.56  .05097 1.0111 118.5 20.5 .643 143
2023 12 03 21  01 29 26.616   -18 48 42.57  .05077 1.0108 118.3 20.5 .654 143
2023 12 03 22  01 28 56.371   -18 49 37.62  .05058 1.0106 118.2 20.5 .665 142
2023 12 03 23  01 28 25.894   -18 50 32.70  .05038 1.0104 118.1 20.5 .677 141
2023 12 04 00  01 27 55.180   -18 51 27.81  .05019 1.0102 117.9 20.5 .689 141
2023 12 04 01  01 27 24.228   -18 52 22.94  .04999 1.0100 117.8 20.5 .701 140
2023 12 04 02  01 26 53.035   -18 53 18.10  .04980 1.0098 117.6 20.4 .713 140
2023 12 04 03  01 26 21.598   -18 54 13.28  .04960 1.0096 117.5 20.4 .725 139
2023 12 04 04  01 25 49.915   -18 55 08.47  .04941 1.0094 117.4 20.4 .738 139
2023 12 04 05  01 25 17.982   -18 56 03.67  .04921 1.0092 117.2 20.4 .751 138
2023 12 04 06  01 24 45.798   -18 56 58.89  .04902 1.0089 117.1 20.4 .765 138
2023 12 04 07  01 24 13.359   -18 57 54.10  .04883 1.0087 116.9 20.4 .778 137
2023 12 04 08  01 23 40.663   -18 58 49.32  .04863 1.0085 116.8 20.4 .792 137
2023 12 04 09  01 23 07.707   -18 59 44.53  .04844 1.0083 116.6 20.4 .807 136
2023 12 04 10  01 22 34.488   -19 00 39.73  .04825 1.0081 116.5 20.4 .821 136
2023 12 04 11  01 22 01.002   -19 01 34.92  .04805 1.0079 116.3 20.4 .836 135
2023 12 04 12  01 21 27.248   -19 02 30.08  .04786 1.0077 116.2 20.4 .852 135
2023 12 04 13  01 20 53.222   -19 03 25.23  .04767 1.0075 116.0 20.4 .867 134
2023 12 04 14  01 20 18.922   -19 04 20.34  .04748 1.0073 115.9 20.4 .883 134